Tracking 25198 objects as of 16-Jan-2022
HD Live streaming from Space Station
objects crossing your sky now

THOR ABLESTAR DEB *

Track THOR ABLESTAR DEB * now!
10-day predictions


NORAD ID: 19961
Int'l Code: 1961-015MJ
Perigee: 865.4 km
Apogee: 1,096.8 km
Inclination: 65.6 °
Period: 104.6 minutes
Semi major axis: 7352 km
RCS: 0.0125 m2 (small)
Launch date: June 29, 1961
Source: United States (US)
Launch site: AIR FORCE EASTERN TEST RANGE (AFETR)

Note: This is SATELLITE DEBRIS
aabbcc
Your satellite tracking list
Your tracking list is empty




NASA's NSSDC Master Catalog

Two Line Element Set (TLE):
1 19961U 61015MJ  22015.83397084  .00000105  00000-0  17254-3 0  9999
2 19961  65.6432 283.8397 0157372  16.4111  43.9065 13.77169184718249
Source of the keplerian elements: AFSPC